Weather History for Cecil Field, FL

Change the Weather History Date:

Thursday, April 25, 2013

  Actual Average (KJAX) Record (KJAX)
Temperature  
Mean Temperature 68 °F 69 °F  
Max Temperature 84 °F 81 °F 92 °F (1958)
Min Temperature 53 °F 57 °F 40 °F (2005)
Degree Days  
Heating Degree Days 0 1  
Month to date heating degree days 51  
Since 1 July heating degree days 1340  
Cooling Degree Days 4 5  
Month to date cooling degree days 87  
Year to date cooling degree days 170  
Growing Degree Days 18 (Base 50)    
Moisture  
Dew Point 60 °F    
Average Humidity 86    
Maximum Humidity 100    
Minimum Humidity 48    
Precipitation  
Precipitation 0.00 in 0.07 in 1.89 in (1992)
Month to date precipitation 2.29  
Year to date precipitation 12.73  
Snow  
Snow 0.00 in 0.00 in 0.00 in (2002)
Month to date snowfall 0.0  
Since 1 July snowfall T  
Snow Depth -    
Sea Level Pressure  
Sea Level Pressure 30.17 in    
Wind  
Wind Speed 1 mph (WNW)    
Max Wind Speed 8 mph    
Max Gust Speed -    
Visibility 8 miles    
Events      
T = Trace of Precipitation, MM = Missing Value Source: NWS Daily Summary

Daily Weather History Graph

Daily Weather History Graph

Search for Another Location

Airport:

Trip Planner

Search our weather history database for the weather conditions in past years. The results will help you decide how hot, cold, wet, or windy it might be!

Date:

Astronomy

Apr. 25, 2013 Rise Set
Actual Time 6:49 AM EDT 8:01 PM EDT
Civil Twilight 6:24 AM EDT 8:26 PM EDT
Nautical Twilight 5:54 AM EDT 8:56 PM EDT
Astronomical Twilight 5:24 AM EDT 9:27 PM EDT
Moon 8:10 PM EDT (4/25) 6:31 AM EDT (4/25)
Length of Visible Light 14h 01m
Length of Day
13h 11m
Full, 100% of the Moon is Illuminated
Apr 25
Full
Apr 25
Full
May 2
Last Quarter
May 9
New
May 18
First Quarter

Hourly Weather History & Observations

Time (EDT) Temp. Heat Index Dew Point Humidity Pressure Visibility Wind Dir Wind Speed Gust Speed Precip Events Conditions
12:15 AM 62.6 °F - 60.8 °F 94% 30.15 in 9.0 mi Calm Calm - N/A   Clear
12:35 AM 60.8 °F - 59.0 °F 94% 30.16 in 7.0 mi Calm Calm - N/A   Clear
12:55 AM 59.0 °F - 59.0 °F 100% 30.16 in 7.0 mi Calm Calm - N/A   Clear
1:15 AM 59.0 °F - 59.0 °F 100% 30.15 in 5.0 mi Calm Calm - N/A   Clear
1:35 AM 59.0 °F - 59.0 °F 100% 30.14 in 5.0 mi Calm Calm - N/A   Clear
1:55 AM 57.2 °F - 57.2 °F 100% 30.14 in 4.0 mi Calm Calm - N/A   Clear
2:15 AM 57.2 °F - 57.2 °F 100% 30.13 in 5.0 mi Calm Calm - N/A   Clear
2:35 AM 57.2 °F - 57.2 °F 100% 30.13 in 4.0 mi Calm Calm - N/A   Clear
2:55 AM 57.2 °F - 57.2 °F 100% 30.12 in 3.0 mi Calm Calm - N/A   Clear
3:15 AM 55.4 °F - 55.4 °F 100% 30.12 in 5.0 mi Calm Calm - N/A   Clear
3:35 AM 55.4 °F - 55.4 °F 100% 30.13 in 5.0 mi Calm Calm - N/A   Clear
3:55 AM 55.4 °F - 55.4 °F 100% 30.13 in 3.0 mi Calm Calm - N/A   Clear
4:15 AM 55.4 °F - 55.4 °F 100% 30.13 in 4.0 mi Calm Calm - N/A   Clear
4:35 AM 55.4 °F - 55.4 °F 100% 30.14 in 5.0 mi Calm Calm - N/A   Clear
4:55 AM 55.4 °F - 55.4 °F 100% 30.14 in 4.0 mi Calm Calm - N/A   Clear
5:15 AM 55.4 °F - 55.4 °F 100% 30.14 in 3.0 mi Calm Calm - N/A   Clear
5:35 AM 55.4 °F - 55.4 °F 100% 30.14 in 3.0 mi Calm Calm - N/A   Clear
5:55 AM 55.4 °F - 55.4 °F 100% 30.15 in 5.0 mi Calm Calm - N/A   Clear
6:15 AM 55.4 °F - 55.4 °F 100% 30.15 in 4.0 mi Calm Calm - N/A   Clear
6:35 AM 53.6 °F - 53.6 °F 100% 30.16 in 4.0 mi Calm Calm - N/A   Clear
6:50 AM 53.6 °F - 53.6 °F 100% 30.17 in 10.0 mi Calm Calm - N/A   Clear
7:50 AM 57.2 °F - 57.2 °F 100% 30.19 in 10.0 mi Calm Calm - N/A   Clear
8:50 AM 68.0 °F - 64.4 °F 88% 30.20 in 10.0 mi Calm Calm - N/A   Scattered Clouds
9:50 AM 73.4 °F - 64.4 °F 73% 30.21 in 10.0 mi Calm Calm - N/A   Scattered Clouds
10:50 AM 75.2 °F - 64.4 °F 69% 30.22 in 10.0 mi Calm Calm - N/A   Scattered Clouds
11:50 AM 77.0 °F - 66.2 °F 69% 30.22 in 10.0 mi Calm Calm - N/A   Scattered Clouds
12:50 PM 80.6 °F 82.3 °F 64.4 °F 58% 30.21 in 10.0 mi Variable 5.8 mph - N/A   Mostly Cloudy
1:50 PM 82.4 °F 83.4 °F 62.6 °F 51% 30.19 in 10.0 mi Variable 5.8 mph - N/A   Scattered Clouds
2:50 PM 82.4 °F 82.9 °F 60.8 °F 48% 30.19 in 10.0 mi Variable 5.8 mph - N/A   Mostly Cloudy
3:50 PM 84.2 °F 85.0 °F 62.6 °F 48% 30.16 in 10.0 mi West 8.1 mph - N/A   Partly Cloudy
4:50 PM 82.4 °F 83.4 °F 62.6 °F 51% 30.14 in 10.0 mi WNW 5.8 mph - N/A   Partly Cloudy
5:50 PM 82.4 °F 83.4 °F 62.6 °F 51% 30.14 in 10.0 mi WNW 5.8 mph - N/A   Partly Cloudy
6:50 PM 80.6 °F 82.3 °F 64.4 °F 58% 30.15 in 10.0 mi WNW 8.1 mph - N/A   Partly Cloudy
7:50 PM 77.0 °F - 64.4 °F 65% 30.16 in 10.0 mi WNW 5.8 mph - N/A   Partly Cloudy
8:15 PM 75.2 °F - 64.4 °F 69% 30.17 in 10.0 mi WNW 5.8 mph - N/A   Clear
8:35 PM 73.4 °F - 64.4 °F 73% 30.18 in 10.0 mi Calm Calm - N/A   Clear
8:55 PM 69.8 °F - 64.4 °F 83% 30.18 in 10.0 mi Calm Calm - N/A   Clear
9:15 PM 68.0 °F - 64.4 °F 88% 30.19 in 10.0 mi Calm Calm - N/A   Clear
9:35 PM 66.2 °F - 64.4 °F 94% 30.20 in 10.0 mi Calm Calm - N/A   Clear
9:55 PM 66.2 °F - 64.4 °F 94% 30.20 in 10.0 mi Calm Calm - N/A   Clear
10:15 PM 66.2 °F - 64.4 °F 94% 30.21 in 10.0 mi Calm Calm - N/A   Clear
10:35 PM 66.2 °F - 64.4 °F 94% 30.21 in 10.0 mi Calm Calm - N/A   Clear
10:55 PM 66.2 °F - 64.4 °F 94% 30.22 in 10.0 mi Calm Calm - N/A   Scattered Clouds
11:15 PM 66.2 °F - 64.4 °F 94% 30.22 in 10.0 mi Calm Calm - N/A   Mostly Cloudy
11:35 PM 68.0 °F - 64.4 °F 88% 30.22 in 10.0 mi SE 4.6 mph - N/A   Mostly Cloudy
11:55 PM 68.0 °F - 64.4 °F 88% 30.22 in 10.0 mi Calm Calm - N/A   Scattered Clouds